Weather in Verkhnebakansky

Russia / Krasnodar Krai     44°50′37″N   37°40′01″E
temp.,
°C
wind,
m/s
gust,
m/s
humid.,
%
clouds,
%
prec.,
mm/h
press.,
hPa
HPBL,
m
17 may, mon
mon1700:00+16s348599 0.2 1003108
03:00+14s41094100 0.2 1004365
06:00+14s3994100 0.0 1005391
09:00+16s4788100 0.0 1007496
12:00+15s4790100 0.1 1008582
15:00+16s468298 0.3 1008554
18:00+15s489087 0.1 1009525
21:00+13s499849 0.2 1011484
18 may, tue
tue1800:00+13ssw5109659 0.1 1010539
03:00+13s499838 0.1 1011513
06:00+13s499524 0.0 1011503
09:00+16s577819 0.0 1012631
12:00+18s58680 0.0 1012785
15:00+18s59695 0.0 1011627
18:00+16sse487529 0.0 1011486
21:00+14sse2390100 0.0 101081
19 may, wed
wed1900:00+14s3898100 0.2 1010418
03:00+14wsw41199100 5.2 1009827
06:00+12ssw3896100 6.5 1011535
09:00+15sw710883 7.4 1012880
12:00+17sw710664 0.7 10131211
15:00+16sw811745 1.2 10141273
18:00+14sw611825 0.5 10151024
21:00+13ssw711924 0.9 1015761
20 may, thu
thu2000:00+13ssw6119599 0.4 1015682
03:00+12ssw49967 0.5 1015502
06:00+13s2395100 0.0 101596
09:00+17sse236556 0.0 1015589
12:00+22sse1239100 0.0 1013955
15:00+23ese2436100 0.0 10111079
18:00+20ne466389 0.0 1011371
21:00+15nne35810 0.0 101086
21 may, fri
fri2100:00+15nne238297 0.0 100932
03:00+15nne33765 0.0 100932
06:00+16nne22660 0.0 100827
09:00+24ne124399 0.0 1008218
12:00+29sw22270 0.0 1008961
15:00+30wsw12305 0.0 10081190
18:00+24ne13565 0.0 1008203
21:00+19nne12815 0.0 100922